Terrell, TX

10:26 AM CDT on October 19, 2017 (GMT -0500)
Terrell Municipal

Weather History for KTRL - February, 2013

Change the Weather History Date:

Friday, February 1, 2013

  Actual Average (KGVT) Record (KGVT)
Temperature  
Mean Temperature 46 °F -  
Max Temperature 62 °F 53 °F 77 °F (2017)
Min Temperature 30 °F 38 °F 19 °F (2011)
Degree Days  
Heating Degree Days 19    
Moisture  
Dew Point 29 °F    
Average Humidity 52    
Maximum Humidity 66    
Minimum Humidity 35    
Precipitation  
Precipitation 0.00 in - - ()
Sea Level Pressure  
Sea Level Pressure 30.29 in    
Wind  
Wind Speed 10 mph (East)    
Max Wind Speed 14 mph    
Max Gust Speed 17 mph    
Visibility 10 miles    
Events      
Averages and records for this station are not official NWS values.
T = Trace of Precipitation, MM = Missing Value Source: NWS Daily Summary

Daily Weather History Graph

Daily Weather History Graph

Search for Another Location

Airport or City:

Trip Planner

Search our weather history database for the weather conditions in past years. The results will help you decide how hot, cold, wet, or windy it might be!

Date:

Astronomy

Feb. 01, 2013 Rise Set
Actual Time 7:19 AM CST 5:58 PM CST
Civil Twilight 6:53 AM CST 6:24 PM CST
Nautical Twilight 6:24 AM CST 6:53 PM CST
Astronomical Twilight 5:55 AM CST 7:22 PM CST
Moon 11:42 PM CST (2/1) 10:15 AM CST (2/1)
Length of Visible Light 11h 30m
Length of Day
10h 38m
Waning Gibbous, 70% of the Moon is Illuminated
Feb 1
Waning Gibbous
Feb 3
Last Quarter
Feb 10
New
Feb 17
First Quarter
Feb 25
Full

Hourly Weather History & Observations

Time (CST) Temp. Windchill Dew Point Humidity Pressure Visibility Wind Dir Wind Speed Gust Speed Precip Events Conditions
12:53 AM 39.9 °F 32.1 °F 26.1 °F 58% 30.33 in 10.0 mi NNE 13.8 mph - N/A   Clear
1:53 AM 37.9 °F 30.0 °F 24.1 °F 57% 30.35 in 10.0 mi NNE 12.7 mph - N/A   Clear
2:53 AM 37.0 °F 29.8 °F 24.1 °F 59% 30.35 in 10.0 mi NNE 10.4 mph - N/A   Clear
4:53 AM 34.0 °F 27.2 °F 23.0 °F 64% 30.37 in 10.0 mi North 8.1 mph - N/A   Clear
5:53 AM 33.1 °F 24.9 °F 21.0 °F 61% 30.38 in 10.0 mi NNE 10.4 mph - N/A   Clear
6:53 AM 30.9 °F 22.8 °F 19.9 °F 64% 30.39 in 10.0 mi NNE 9.2 mph - N/A   Clear
7:53 AM 30.9 °F 22.8 °F 19.9 °F 64% 30.41 in 10.0 mi NNE 9.2 mph - N/A   Clear
8:53 AM 37.0 °F 30.4 °F 23.0 °F 57% 30.39 in 10.0 mi ENE 9.2 mph - N/A   Clear
9:53 AM 44.1 °F 38.1 °F 27.0 °F 51% 30.40 in 10.0 mi East 11.5 mph - N/A   Clear
10:53 AM 48.0 °F - 28.0 °F 46% 30.39 in 10.0 mi ESE 6.9 mph - N/A   Clear
11:53 AM 52.0 °F - 30.0 °F 43% 30.36 in 10.0 mi East 9.2 mph - N/A   Clear
12:53 PM 55.0 °F - 30.9 °F 40% 30.31 in 10.0 mi SSE 9.2 mph - N/A   Clear
1:53 PM 59.0 °F - 32.0 °F 36% 30.28 in 10.0 mi SE 11.5 mph - N/A   Clear
2:53 PM 60.1 °F - 33.1 °F 36% 30.26 in 10.0 mi South 10.4 mph 17.3 mph N/A   Clear
3:53 PM 62.1 °F - 34.0 °F 35% 30.23 in 10.0 mi South 11.5 mph - N/A   Clear
4:53 PM 61.0 °F - 34.0 °F 36% 30.21 in 10.0 mi SSE 9.2 mph - N/A   Clear
5:53 PM 57.9 °F - 32.0 °F 37% 30.20 in 10.0 mi South 5.8 mph - N/A   Clear
6:53 PM 53.1 °F - 33.1 °F 47% 30.20 in 10.0 mi SSE 3.5 mph - N/A   Clear
7:53 PM 51.1 °F - 34.0 °F 52% 30.19 in 10.0 mi Calm Calm - N/A   Clear
8:53 PM 46.9 °F - 34.0 °F 61% 30.19 in 10.0 mi Calm Calm - N/A   Clear
9:53 PM 48.0 °F - 34.0 °F 58% 30.20 in 10.0 mi Calm Calm - N/A   Clear
10:53 PM 46.0 °F 43.1 °F 35.1 °F 66% 30.20 in 10.0 mi South 5.8 mph - N/A   Clear
11:53 PM 51.1 °F - 37.0 °F 59% 30.19 in 10.0 mi South 6.9 mph - N/A   Clear